Flag for United Kingdom Weather past 2 weeks in Brighton, England, United Kingdom

Now
48 °F

Passing clouds.


Feels Like: 42 °F
Forecast: 44 / 51 °F
Wind: 18 mph from Southwest

Location: Shoreham Airport

Current Time: Apr 28, 2015 at 9:39:28 PM

Latest Report: Apr 28, 2015 at 7:50 PM


Visibility: N/A

Pressure: 30.09 "Hg

Humidity: 66%

Dew point: 37 °F

Location of BrightonLocation

Historic Weather in Brighton — Graph

°F

Brighton temperature yesterday

Maximum temperature yesterday: 54 °F (at 11:50 AM)
Minimum temperature yesterday: 39 °F (at 7:50 AM)
Average temperature yesterday: 50 °F

Past Weeks' High & Low Weather Summary

 TemperatureHumidityPressure
High68 °F (Apr 15, 1:50 PM)100% (Apr 14, 7:50 AM)30.51 "Hg (Apr 14, 7:50 AM)
Low39 °F (Apr 27, 7:50 AM)40% (Apr 20, 3:20 PM)29.71 "Hg (Apr 25, 8:50 AM)
Average54 °F68%30.10 "Hg
* Reported Apr 14 7:50 AM — Apr 28 7:50 PM, Brighton, Weather by CustomWeather, © 2015

Note: Actual official high and low records may vary slightly from our data, if they occured in-between our weather recording intervals... More about our weather records

Advertising

Brighton weather history for previous 24 hours

 ConditionsComfort  
Time TempWeatherWind HumidityBarometerVisibility
7:50 PM
Tue, Apr 28
48 °FPassing clouds.18 mph66%30.09 "HgN/A
7:20 PM48 °FPassing clouds.15 mph66%30.09 "HgN/A
6:50 PM50 °FPassing clouds.20 mph62%30.09 "HgN/A
6:20 PM50 °FPassing clouds.21 mph67%30.09 "HgN/A
5:50 PM50 °FPassing clouds.23 mph62%30.09 "HgN/A
5:20 PM50 °FPassing clouds.23 mph67%30.09 "HgN/A
4:50 PM52 °FPassing clouds.22 mph62%30.09 "HgN/A
4:20 PM52 °FPassing clouds.21 mph62%30.09 "HgN/A
3:50 PM52 °FScattered clouds.22 mph58%30.09 "HgN/A
3:20 PM52 °FScattered clouds.24 mph58%30.09 "HgN/A
2:50 PM52 °FScattered clouds.24 mph62%30.09 "HgN/A
2:20 PM50 °FScattered clouds.23 mph62%30.09 "HgN/A
1:50 PM52 °FScattered clouds.22 mph58%30.09 "HgN/A
1:20 PM54 °FScattered clouds.20 mph51%30.09 "HgN/A
12:50 PM52 °FScattered clouds.17 mph54%30.09 "HgN/A
12:20 PM54 °FScattered clouds.15 mph51%30.09 "HgN/A
11:50 AM50 °FScattered clouds.16 mph47%30.09 "HgN/A
11:20 AM50 °FPassing clouds.16 mph47%30.09 "HgN/A
10:50 AM50 °FPassing clouds.14 mph47%30.07 "HgN/A
10:20 AM48 °FPassing clouds.16 mph50%30.07 "HgN/A
9:50 AM46 °FPassing clouds.13 mph53%30.07 "HgN/A
9:20 AM48 °FPassing clouds.15 mph54%30.07 "HgN/A
8:50 AM46 °FPassing clouds.14 mph57%30.04 "HgN/A
8:20 AM45 °FSunny.12 mph66%30.04 "Hg10 mi
7:50 AM43 °FSunny.13 mph76%30.04 "Hg10 mi
Weather by CustomWeather, © 2015

See weather overviewHow to use our weather pages